{"data":{"norad_id":48068,"epoch":"2026-05-25T01:26:26.566080Z","epoch_age_seconds":73335,"freshness":"FRESH","line1":"1 48068U 21025AC  26145.06002970 -.00000311  00000+0 -88764-3 0  9990","line2":"2 48068  87.8951 324.8265 0001735  97.4431 262.6895 13.13467973250526","mean_motion":13.13467973,"eccentricity":0.0001735,"inclination_deg":87.8951,"raan_deg":324.8265,"arg_perigee_deg":97.4431,"mean_anomaly_deg":262.6895,"bstar":-0.00088764,"rev_number":25052,"period_min":109.63343070414,"perigee_km":1208.4567041279,"apogee_km":1211.0897089696,"semimajor_km":7587.9102065488,"source":"CELESTRAK","updated_at":"2026-05-25T13:38:22.393173Z"}}